Regional Weather Roundup
Issued by NWS

Home | Current Version | Previous Version | Graphics & Text | Print | Product List | Glossary On
Versions: 1 2 3 4 5 6 7 8 9 10 11 12 13 14 15 16 17 18 19 20 21 22 23 24 25 26 27 28 29 30 31 32 33 34 35 36 37 38 39 40 41 42 43 44 45 46 47 48 49 50
000
ASUS45 KSLC 250610
RWRUT

UTAH REGIONAL WEATHER ROUNDUP
NATIONAL WEATHER SERVICE SALT LAKE CITY UT
1200 AM MDT MON MAY 25 2015

UTZ001>011-023>025-250700-

NORTHERN UTAH

CITY           SKY/WX    TMP DP  RH WIND       PRES   REMARKS
BRIGHAM CITY   PTCLDY    53  48  83 E5        29.92S
HILL AFB       MOCLDY    50  46  87 SE7       29.93S
LOGAN          CLOUDY    53  50  89 SE3       29.91S
OGDEN          PTCLDY    50  48  93 S8        29.92S
PROVO AIRPORT  CLOUDY    55  45  67 CALM      29.93S
SALT LAKE CITY MOCLDY    55  48  77 SE5       29.93S
VERNAL         RAIN      47  44  90 N3        29.96S
WENDOVER       MOCLDY    57  45  62 SW3       29.92S
HEBER CITY     CLOUDY    48  39  71 E6        29.97S
WEST JORDAN    CLOUDY    52  48  87 S8        29.95F

$$

UTZ012>022-026-027-250700-

SOUTHERN/CENTRAL UTAH

CITY           SKY/WX    TMP DP  RH WIND       PRES   REMARKS
BLANDING       CLEAR     47  43  85 NE3       30.03R
BRYCE CANYON   PTCLDY    44  37  76 NW14      30.04F
CEDAR CITY     CLOUDY    50  46  86 CALM      30.01R
DELTA          PTCLDY    51  45  81 CALM      29.94F
HANKSVILLE     CLOUDY    59  46  63 SE3       29.90S
MILFORD        MOCLDY    50  45  83 SW6       29.97R
MOAB/CYNLANDS  CLOUDY    56  42  59 E13       29.89R
PRICE          CLEAR     52  35  52 N8        29.93S
ST GEORGE      CLOUDY    63  46  55 SW6       29.95R
KANAB          PTCLDY    48  48 100 NE6       30.03R

$$

REGIONAL REPORTS     COLORADO/ARIZONA

CITY           SKY/WX    TMP DP  RH WIND       PRES   REMARKS
CRAIG, CO      CLOUDY    44  40  85 W3        29.97S
GRAND JUNCTION RAIN      49  46  90 E6        29.95R FOG
RIFLE          CLOUDY    46  42  86 E3        29.97F
MONTROSE       MOCLDY    47  45  93 S6        29.97S
CORTEZ         CLOUDY    45  41  86 NE6       29.98R
PAGE, AZ       PTCLDY    60  47  61 CALM      29.93R
GRAND CANYON   MOCLDY    43  42  97 CALM      30.06F
KINGMAN        CLOUDY    61  49  64 CALM      29.94R
FLAGSTAFF      MOCLDY    45  41  86 W3        30.08S

$$

REGIONAL REPORTS    NEVADA/IDAHO/WYOMING

CITY           SKY/WX    TMP DP  RH WIND       PRES   REMARKS
LAS VEGAS, NV  TSTM      65  56  72 NE12      29.88R
ELY            CLEAR     43  41  93 S7        30.04S
ELKO           PTCLDY    48  45  89 E5        29.99R
POCATELLO, ID  MOCLDY    52  48  86 SW13      29.93S
BURLEY         PTCLDY    51  44  77 W5        29.91F
EVANSTON, WY   CLOUDY    42  39  89 S6        29.99S
ROCK SPRINGS   CLOUDY    43  39  86 CALM      29.98F
KEMMERER       CLOUDY    41  39  93 SE7       30.01R

$$


USA.gov is the U.S. government's official web portal to all federal, state and local government web resources and services.